Tiempo cada hora Abaliget

Hoy, 23 Junio, Miércoles

Tiempo Temperatura Precipitaciones Viento Presión Humedad
00:00 +23°C° 0 mm 2 mps 743 mmHg 55%
01:00 +23°C° 0 mm 2 mps 743 mmHg 54%
02:00 +21°C° 0 mm 2 mps 743 mmHg 55%
03:00 +21°C° 0 mm 2 mps 743 mmHg 56%
04:00 +20°C° 0 mm 2 mps 744 mmHg 57%
05:00 +23°C° 0 mm 2 mps 744 mmHg 57%
06:00 +24°C° 0 mm 2 mps 744 mmHg 56%
07:00 +25°C° 0 mm 3 mps 745 mmHg 55%
08:00 +27°C° 0 mm 3 mps 745 mmHg 51%
09:00 +29°C° 0 mm 3 mps 745 mmHg 47%
10:00 +31°C° 0 mm 3 mps 746 mmHg 44%
11:00 +33°C° 0 mm 3 mps 746 mmHg 41%
12:00 +34°C° 0 mm 3 mps 746 mmHg 38%
13:00 +35°C° 0 mm 2 mps 745 mmHg 36%
14:00 +36°C° 0 mm 2 mps 745 mmHg 35%
15:00 +36°C° 0 mm 2 mps 745 mmHg 35%
16:00 +36°C° 0 mm 2 mps 745 mmHg 35%
17:00 +34°C° 0 mm 2 mps 745 mmHg 43%
18:00 +31°C° 0 mm 2 mps 745 mmHg 52%
19:00 +29°C° 0 mm 2 mps 745 mmHg 60%
20:00 +28°C° 0 mm 2 mps 745 mmHg 62%
21:00 +26°C° 0 mm 2 mps 746 mmHg 64%
22:00 +25°C° 0 mm 2 mps 746 mmHg 67%
23:00 +25°C° 0 mm 2 mps 746 mmHg 67%

Mañana, 24 Junio, Jueves

Tiempo Temperatura Precipitaciones Viento Presión Humedad
00:00 +25°C° 0 mm 2 mps 745 mmHg 67%
01:00 +24°C° 0 mm 2 mps 745 mmHg 68%
02:00 +24°C° 0 mm 2 mps 745 mmHg 69%
03:00 +23°C° 0 mm 1 mps 745 mmHg 70%
04:00 +23°C° 0 mm 1 mps 745 mmHg 72%
05:00 +24°C° 0 mm 1 mps 745 mmHg 67%
06:00 +26°C° 0 mm 1 mps 745 mmHg 62%
07:00 +28°C° 0 mm 1 mps 746 mmHg 58%
08:00 +30°C° 0 mm 2 mps 746 mmHg 52%
09:00 +32°C° 0 mm 2 mps 746 mmHg 46%
10:00 +35°C° 0 mm 3 mps 746 mmHg 40%
11:00 +36°C° 0 mm 3 mps 746 mmHg 37%
12:00 +37°C° 0 mm 3 mps 745 mmHg 33%
13:00 +39°C° 0 mm 3 mps 745 mmHg 30%
14:00 +39°C° 0 mm 3 mps 745 mmHg 29%
15:00 +39°C° 0 mm 3 mps 745 mmHg 29%
16:00 +39°C° 0 mm 3 mps 745 mmHg 29%
17:00 +37°C° 0 mm 3 mps 744 mmHg 36%
18:00 +35°C° 0 mm 2 mps 744 mmHg 42%
19:00 +32°C° 0 mm 2 mps 744 mmHg 48%
20:00 +30°C° 0 mm 2 mps 744 mmHg 50%
21:00 +28°C° 0 mm 2 mps 744 mmHg 52%
22:00 +27°C° 0 mm 2 mps 744 mmHg 54%
23:00 +26°C° 0 mm 2 mps 744 mmHg 55%

Pasado mañana, 25 Junio, Viernes

Tiempo Temperatura Precipitaciones Viento Presión Humedad
00:00 +25°C° 0 mm 2 mps 744 mmHg 56%
01:00 +25°C° 0 mm 2 mps 744 mmHg 57%
02:00 +24°C° 0.1 mm 2 mps 744 mmHg 61%
03:00 +23°C° 0.1 mm 2 mps 745 mmHg 65%
04:00 +23°C° 0.1 mm 2 mps 745 mmHg 68%
05:00 +23°C° 0 mm 2 mps 745 mmHg 67%
06:00 +24°C° 0 mm 3 mps 746 mmHg 67%
07:00 +25°C° 0 mm 4 mps 746 mmHg 66%
08:00 +26°C° 0 mm 4 mps 746 mmHg 60%
09:00 +28°C° 0 mm 4 mps 746 mmHg 55%
10:00 +29°C° 0 mm 3 mps 746 mmHg 49%
11:00 +30°C° 0 mm 3 mps 746 mmHg 46%
12:00 +31°C° 0 mm 3 mps 746 mmHg 43%
13:00 +32°C° 0 mm 2 mps 746 mmHg 40%
14:00 +33°C° 0 mm 3 mps 745 mmHg 41%
15:00 +33°C° 0 mm 3 mps 744 mmHg 41%
16:00 +32°C° 0 mm 4 mps 744 mmHg 42%
17:00 +28°C° 3.1 mm 4 mps 744 mmHg 58%
18:00 +25°C° 3.1 mm 3 mps 745 mmHg 75%
19:00 +20°C° 3.1 mm 3 mps 745 mmHg 92%
20:00 +19°C° 0.4 mm 2 mps 746 mmHg 92%
21:00 +20°C° 0.4 mm 1 mps 746 mmHg 93%
22:00 +19°C° 0.4 mm 1 mps 746 mmHg 94%
23:00 +19°C° 0 mm 1 mps 746 mmHg 94%

26 Junio, Sábado

Tiempo Temperatura Precipitaciones Viento Presión Humedad
00:00 +19°C° 0 mm 1 mps 746 mmHg 94%
01:00 +17°C° 0 mm 2 mps 746 mmHg 94%
02:00 +18°C° 0 mm 2 mps 747 mmHg 93%
03:00 +18°C° 0 mm 2 mps 747 mmHg 92%
04:00 +18°C° 0 mm 2 mps 747 mmHg 91%
05:00 +18°C° 0 mm 2 mps 747 mmHg 89%
06:00 +19°C° 0 mm 2 mps 747 mmHg 88%
07:00 +19°C° 0 mm 2 mps 747 mmHg 86%
08:00 +20°C° 0 mm 3 mps 748 mmHg 79%
09:00 +21°C° 0 mm 3 mps 748 mmHg 71%
10:00 +24°C° 0 mm 3 mps 748 mmHg 64%
11:00 +25°C° 0 mm 3 mps 748 mmHg 58%
12:00 +27°C° 0 mm 3 mps 747 mmHg 51%
13:00 +28°C° 0 mm 3 mps 747 mmHg 45%
14:00 +29°C° 0 mm 3 mps 747 mmHg 44%
15:00 +29°C° 0 mm 3 mps 746 mmHg 43%
16:00 +29°C° 0 mm 3 mps 746 mmHg 42%
17:00 +27°C° 0 mm 3 mps 746 mmHg 48%
18:00 +26°C° 0 mm 2 mps 746 mmHg 54%
19:00 +24°C° 0 mm 2 mps 746 mmHg 60%
20:00 +23°C° 0 mm 2 mps 746 mmHg 62%
21:00 +21°C° 0 mm 2 mps 747 mmHg 64%
22:00 +20°C° 0 mm 2 mps 747 mmHg 66%
23:00 +19°C° 0 mm 2 mps 747 mmHg 68%

27 Junio, Domingo

Tiempo Temperatura Precipitaciones Viento Presión Humedad
00:00 +18°C° 0 mm 2 mps 747 mmHg 71%
01:00 +19°C° 0 mm 1 mps 747 mmHg 73%
02:00 +18°C° 0 mm 1 mps 747 mmHg 76%
03:00 +18°C° 0 mm 1 mps 747 mmHg 79%
04:00 +18°C° 0 mm 1 mps 747 mmHg 82%
05:00 +19°C° 0 mm 1 mps 747 mmHg 77%
06:00 +21°C° 0 mm 1 mps 747 mmHg 72%
07:00 +23°C° 0 mm 1 mps 747 mmHg 67%
08:00 +24°C° 0 mm 1 mps 747 mmHg 61%
09:00 +26°C° 0 mm 2 mps 747 mmHg 55%
10:00 +27°C° 0 mm 2 mps 747 mmHg 50%
11:00 +28°C° 0 mm 1 mps 747 mmHg 47%
12:00 +29°C° 0 mm 1 mps 747 mmHg 43%
13:00 +30°C° 0 mm 1 mps 747 mmHg 40%
14:00 +31°C° 0 mm 1 mps 747 mmHg 39%
15:00 +31°C° 0 mm 1 mps 746 mmHg 39%
16:00 +31°C° 0 mm 1 mps 746 mmHg 38%
17:00 +29°C° 0 mm 1 mps 746 mmHg 45%
18:00 +28°C° 0 mm 1 mps 746 mmHg 51%
19:00 +26°C° 0 mm 1 mps 746 mmHg 58%
20:00 +25°C° 0 mm 1 mps 746 mmHg 61%
21:00 +24°C° 0 mm 1 mps 747 mmHg 64%
22:00 +22°C° 0 mm 1 mps 747 mmHg 66%
23:00 +22°C° 0 mm 1 mps 747 mmHg 68%

28 Junio, Lunes

Tiempo Temperatura Precipitaciones Viento Presión Humedad
00:00 +21°C° 0 mm 1 mps 747 mmHg 69%
01:00 +21°C° 0 mm 1 mps 747 mmHg 71%
02:00 +19°C° 0 mm 0 mps 747 mmHg 72%
03:00 +18°C° 0 mm 0 mps 747 mmHg 73%
04:00 +18°C° 0 mm 0 mps 747 mmHg 74%
05:00 +20°C° 0 mm 0 mps 747 mmHg 69%
06:00 +24°C° 0 mm 1 mps 747 mmHg 64%
07:00 +25°C° 0 mm 1 mps 748 mmHg 58%
08:00 +27°C° 0 mm 1 mps 748 mmHg 53%
09:00 +29°C° 0 mm 2 mps 747 mmHg 47%
10:00 +30°C° 0 mm 2 mps 747 mmHg 41%
11:00 +31°C° 0 mm 2 mps 747 mmHg 39%
12:00 +33°C° 0 mm 3 mps 747 mmHg 36%
13:00 +33°C° 0 mm 3 mps 747 mmHg 34%
14:00 +34°C° 0 mm 3 mps 746 mmHg 34%
15:00 +34°C° 0 mm 3 mps 746 mmHg 34%
16:00 +34°C° 0 mm 3 mps 746 mmHg 34%
17:00 +31°C° 0 mm 2 mps 746 mmHg 41%
18:00 +29°C° 0 mm 2 mps 745 mmHg 48%
19:00 +27°C° 0 mm 2 mps 745 mmHg 55%
20:00 +26°C° 0 mm 2 mps 745 mmHg 56%
21:00 +25°C° 0 mm 2 mps 745 mmHg 58%
22:00 +24°C° 0 mm 2 mps 745 mmHg 59%
23:00 +23°C° 0 mm 2 mps 745 mmHg 60%
Mostrar más

Necesitamos Su Consentimiento

Meteoprog y nuestros Proveedores de Servicios pueden almacenar y acceder a sus datos personales como cookies, identificadores de dispositivo u otras tecnologías similares de su dispositivo y procesar dichos datos para personalizar contenido y anuncios, además de ofrecer funciones de redes sociales y analizar el tráfico.

  • Almacenar y/o acceder a información en su dispositivo

    Se puede almacenar o acceder a cookies, identificadores de dispositivo u otra información de su dispositivo para los fines anteriormente indicados.

  • Anuncios y contenido personalizados, medición de anuncios y contenido, percepciones del público, y desarrollo de productos

    Los anuncios y el contenido pueden personalizarse en base a su perfil. Se pueden añadir más datos para personalizar mejor los anuncios y contenidos. Se puede medir el rendimiento de los anuncios y contenidos. Se puede obtener la percepción sobre el público que ha visto los anuncios y contenidos. Dichos datos pueden usarse para desarrollar o mejorar la experiencia del usuario, sistemas y software.

Al hacer clic en ‘Estoy De Acuerdo’ usted permitirá el uso de las cookies, identificadores de dispositivo, balizas web u otras tecnologías similares indicadas. Su configuración puede cambiarse desde el navegador de su dispositivo.

Para ciertos fines, los intereses legítimos pueden ser considerados por encima del consentimiento. Puede leer más sobre ello en nuestra Política de Privacidad y Cookies.